Location: Newark
(55.7167°N, 12.5667°E)
Time: 14:35:47
(UTC+00:00)

N. Korean satellite - Pass Details

Date: 11 December 2019
Orbit: 454 x 507 km, 97.2° (Epoch: 25 January)

Event Time Altitude Azimuth Distance (km) Brightness Sun altitude
Rises 15:14:17 0° 143° (SE) 2,605 10.2 -4.9°
Reaches altitude 10° 15:16:28 10° 135° (SE) 1,720 9.2 -5.2°
Maximum altitude 15:19:54 37° 67° (ENE) 803 7.2 -5.6°
Drops below altitude 10° 15:23:19 10° 359° (N) 1,714 9.0 -6.0°
Sets 15:25:29 0° 352° (N) 2,594 10.0 -6.3°
